KC5NAM Weather Reports


Display with metric or nautical units.
time (UTC)temp
F
wind
direction
speed
MPH
gust
MPH
rain 1hr
in
rain 24hr
in
rain mn
in
humidity
%
barometer
mb
20240227023535 74 91 4.0 11.0 0.00 0.00 0.00 80 1010.2
20240227023042 74 133 2.0 9.0 0.00 0.00 0.00 80 1010.3
20240227022540 74 122 3.0 10.0 0.00 0.00 0.00 79 1010.2
20240227022036 75 128 3.0 11.0 0.00 0.00 0.00 79 1010.3
20240227021545 75 71 3.0 11.0 0.00 0.00 0.00 78 1010.3
20240227021037 75 71 4.0 9.0 0.00 0.00 0.00 78 1010.1
20240227020536 75 124 3.0 9.0 0.00 0.00 0.00 77 1010.2
20240227020046 76 80 3.0 10.0 0.00 0.00 0.00 77 1010.1
20240227015535 76 126 4.0 10.0 0.00 0.00 0.00 76 1010.0
20240227015036 76 100 2.0 8.0 0.00 0.00 0.00 75 1009.9
20240227014541 76 139 2.0 8.0 0.00 0.00 0.00 75 1009.9
20240227014035 77 119 2.0 8.0 0.00 0.00 0.00 74 1009.9
20240227013536 77 90 3.0 8.0 0.00 0.00 0.00 73 1009.9
20240227013052 77 80 2.0 9.0 0.00 0.00 0.00 72 1009.9
20240227012535 77 65 2.0 9.0 0.00 0.00 0.00 72 1009.9
20240227012036 76 67 4.0 9.0 0.00 0.00 0.00 72 1009.8
20240227011550 76 64 0.0 3.0 0.00 0.00 0.00 70 1009.6
20240227011035 77 0 0.0 0.0 0.00 0.00 0.00 69 1009.5
20240227010539 77 0 0.0 0.0 0.00 0.00 0.00 68 1009.5
20240227010050 78 0 0.0 0.0 0.00 0.00 0.00 68 1009.4
20240227005535 78 0 0.0 0.0 0.00 0.00 0.00 67 1009.4
20240227005039 79 0 0.0 0.0 0.00 0.00 0.00 66 1009.4
20240227004542 79 0 0.0 0.0 0.00 0.00 0.00 65 1009.4
20240227004036 79 0 0.0 0.0 0.00 0.00 0.00 65 1009.4
20240227003539 80 0 0.0 0.0 0.00 0.00 0.00 64 1009.4
20240227003044 80 0 0.0 0.0 0.00 0.00 0.00 64 1009.3
20240227002537 81 0 0.0 0.0 0.00 0.00 0.00 63 1009.5
20240227002036 81 0 0.0 2.0 0.00 0.00 0.00 62 1009.4
20240227001550 81 0 0.0 2.0 0.00 0.00 0.00 62 1009.6
20240227001040 82 0 0.0 4.0 0.00 0.00 0.00 61 1009.7
20240227000536 82 0 0.0 4.0 0.00 0.00 0.00 61 1009.8
20240227000037 82 0 1.0 8.0 0.00 0.00 0.00 60 1009.7
20240226235536 82 0 2.0 8.0 0.00 0.00 0.00 60 1009.7
20240226235035 83 159 2.0 8.0 0.00 0.00 0.00 59 1009.8
20240226234545 83 128 2.0 9.0 0.00 0.00 0.00 59 1009.9
20240226234036 83 130 2.0 9.0 0.00 0.00 0.00 58 1009.9
20240226233536 83 146 4.0 9.0 0.00 0.00 0.00 58 1009.8
20240226233043 84 161 3.0 13.0 0.00 0.00 0.00 57 1009.9
20240226232535 84 128 5.0 13.0 0.00 0.00 0.00 57 1009.9
20240226232036 84 136 6.0 11.0 0.00 0.00 0.00 57 1010.1
20240226231540 84 140 4.0 9.0 0.00 0.00 0.00 58 1010.2
20240226231036 84 173 4.0 11.0 0.00 0.00 0.00 57 1010.2
20240226230537 84 155 3.0 11.0 0.00 0.00 0.00 59 1010.2
20240226230040 84 126 5.0 11.0 0.00 0.00 0.00 59 1010.2
20240226225536 84 0 4.0 8.0 0.00 0.00 0.00 58 1010.1
20240226225036 84 178 3.0 8.0 0.00 0.00 0.00 58 1010.2
20240226224537 85 139 2.0 8.0 0.00 0.00 0.00 58 1010.2
20240226224036 84 159 1.0 11.0 0.00 0.00 0.00 58 1010.1
20240226223540 85 153 5.0 11.0 0.00 0.00 0.00 57 1010.1
20240226223041 85 127 3.0 11.0 0.00 0.00 0.00 57 1010.3
20240226222536 85 167 4.0 11.0 0.00 0.00 0.00 58 1010.3
20240226222035 85 90 5.0 11.0 0.00 0.00 0.00 58 1010.1
20240226221545 85 124 3.0 12.0 0.00 0.00 0.00 57 1010.2
20240226221036 85 176 6.0 12.0 0.00 0.00 0.00 58 1010.4
20240226220535 85 144 2.0 12.0 0.00 0.00 0.00 59 1010.4
20240226220044 85 160 6.0 12.0 0.00 0.00 0.00 58 1010.4
20240226215538 85 164 5.0 14.0 0.00 0.00 0.00 59 1010.3
20240226215036 84 169 8.0 14.0 0.00 0.00 0.00 60 1010.6
20240226214536 84 163 4.0 11.0 0.00 0.00 0.00 60 1010.7
20240226214036 84 146 4.0 12.0 0.00 0.00 0.00 59 1010.9
20240226213536 84 148 4.0 13.0 0.00 0.00 0.00 60 1010.9
20240226213039 84 160 6.0 13.0 0.00 0.00 0.00 60 1011.0
20240226212537 84 150 5.0 14.0 0.00 0.00 0.00 61 1011.1
20240226212036 84 0 5.0 14.0 0.00 0.00 0.00 61 1011.1
20240226211542 84 162 4.0 11.0 0.00 0.00 0.00 61 1011.4
20240226211040 84 146 4.0 12.0 0.00 0.00 0.00 62 1011.3
20240226210540 83 212 7.0 12.0 0.00 0.00 0.00 62 1011.4
20240226210041 83 159 3.0 12.0 0.00 0.00 0.00 63 1011.4
20240226205534 83 193 5.0 12.0 0.00 0.00 0.00 64 1011.5
20240226205034 82 188 5.0 15.0 0.00 0.00 0.00 62 1011.6
20240226204546 82 176 3.0 15.0 0.00 0.00 0.00 64 1011.6
20240226204034 82 143 5.0 14.0 0.00 0.00 0.00 63 1011.7
20240226203534 82 140 3.0 14.0 0.00 0.00 0.00 64 1011.8
20240226203041 82 168 3.0 14.0 0.00 0.00 0.00 65 1011.8
20240226202536 82 185 4.0 11.0 0.00 0.00 0.00 65 1012.0
20240226202035 82 158 5.0 11.0 0.00 0.00 0.00 63 1012.0
20240226201546 82 151 2.0 10.0 0.00 0.00 0.00 64 1012.2
20240226201035 82 145 2.0 10.0 0.00 0.00 0.00 65 1012.4
20240226200533 81 186 5.0 10.0 0.00 0.00 0.00 67 1012.7
20240226200041 81 211 4.0 10.0 0.00 0.00 0.00 66 1012.8
20240226195535 80 138 3.0 11.0 0.00 0.00 0.00 69 1013.0
20240226195037 80 146 4.0 11.0 0.00 0.00 0.00 67 1013.2
20240226194536 80 0 3.0 9.0 0.00 0.00 0.00 69 1013.3
20240226194035 78 115 4.0 7.0 0.00 0.00 0.00 71 1013.5
20240226193534 78 153 2.0 5.0 0.00 0.00 0.00 71 1013.6
20240226193039 77 141 2.0 10.0 0.00 0.00 0.00 72 1013.7
20240226192534 77 177 1.0 10.0 0.00 0.00 0.00 71 1013.7
20240226192034 77 159 3.0 8.0 0.00 0.00 0.00 72 1013.9
20240226191540 77 197 3.0 8.0 0.00 0.00 0.00 73 1014.0
20240226191035 77 0 2.0 6.0 0.00 0.00 0.00 73 1014.1
20240226190534 77 146 2.0 9.0 0.00 0.00 0.00 74 1014.2
20240226190047 76 146 3.0 9.0 0.00 0.00 0.00 74 1014.5
20240226185534 76 175 6.0 11.0 0.00 0.00 0.00 73 1014.5
20240226185034 76 0 2.0 11.0 0.00 0.00 0.00 73 1014.5
20240226184547 77 173 4.0 9.0 0.00 0.00 0.00 73 1014.6
20240226184033 76 135 4.0 9.0 0.00 0.00 0.00 75 1014.7
20240226183535 76 148 4.0 9.0 0.00 0.00 0.00 77 1014.9
20240226183046 75 0 2.0 8.0 0.00 0.00 0.00 77 1015.0
20240226182535 75 178 0.0 12.0 0.00 0.00 0.00 78 1015.0
20240226182036 74 175 6.0 12.0 0.00 0.00 0.00 79 1015.2
20240226181543 73 153 3.0 10.0 0.00 0.00 0.00 83 1015.2
20240226181035 73 165 3.0 9.0 0.00 0.00 0.00 82 1015.3
20240226180534 72 167 3.0 9.0 0.00 0.00 0.00 84 1015.3
20240226180046 71 170 2.0 11.0 0.00 0.00 0.00 87 1015.4
20240226175535 70 0 5.0 11.0 0.00 0.00 0.00 88 1015.5
20240226175033 69 180 5.0 11.0 0.00 0.00 0.00 89 1015.5
20240226174545 69 0 3.0 12.0 0.00 0.00 0.00 91 1015.7
20240226174035 68 178 5.0 12.0 0.00 0.00 0.00 95 1015.8
20240226173534 67 150 5.0 10.0 0.00 0.00 0.00 95 1015.8
20240226173038 67 183 2.0 8.0 0.00 0.00 0.00 96 1016.0
20240226172535 67 155 2.0 8.0 0.00 0.00 0.00 96 1016.2
20240226172034 66 157 4.0 9.0 0.00 0.00 0.00 96 1016.2
20240226171538 66 161 4.0 9.0 0.00 0.00 0.00 96 1016.2
20240226171034 66 179 4.0 8.0 0.00 0.00 0.00 96 1016.3
20240226170534 66 157 5.0 7.0 0.00 0.00 0.00 96 1016.3
20240226170044 66 150 3.0 9.0 0.00 0.00 0.00 96 1016.3
20240226165534 66 150 2.0 9.0 0.00 0.00 0.00 96 1016.4
20240226165034 66 163 3.0 9.0 0.00 0.00 0.00 96 1016.4
20240226164539 66 198 3.0 8.0 0.00 0.00 0.00 96 1016.3
20240226164035 66 184 4.0 8.0 0.00 0.00 0.00 96 1016.4
20240226163534 66 157 4.0 8.0 0.00 0.00 0.00 96 1016.3
20240226163037 65 137 4.0 8.0 0.00 0.00 0.00 96 1016.3
20240226162534 65 157 3.0 9.0 0.00 0.00 0.00 96 1016.5
20240226162034 65 198 3.0 9.0 0.00 0.00 0.00 96 1016.5
20240226161545 65 186 2.0 7.0 0.00 0.00 0.00 96 1016.5
20240226161035 65 205 3.0 7.0 0.00 0.00 0.00 96 1016.6
20240226160534 65 171 2.0 9.0 0.00 0.00 0.00 96 1016.6
20240226160040 65 204 3.0 9.0 0.00 0.00 0.00 96 1016.6
20240226155534 65 155 3.0 8.0 0.00 0.00 0.00 96 1016.7
20240226155034 65 158 3.0 9.0 0.00 0.00 0.00 96 1016.6
20240226154537 65 190 3.0 9.0 0.00 0.00 0.00 96 1016.5
20240226154033 65 168 3.0 9.0 0.00 0.00 0.00 96 1016.4
20240226153533 64 155 4.0 11.0 0.00 0.00 0.00 96 1016.4
20240226153044 64 173 3.0 11.0 0.00 0.00 0.00 96 1016.3
20240226152534 64 153 3.0 9.0 0.00 0.00 0.00 96 1016.2
20240226152033 64 161 4.0 9.0 0.00 0.00 0.00 96 1016.2
20240226151539 64 175 3.0 6.0 0.00 0.00 0.00 96 1016.1
20240226151035 64 173 2.0 7.0 0.00 0.00 0.00 96 1016.1
20240226150534 63 146 3.0 7.0 0.00 0.00 0.00 96 1016.1
20240226150039 63 150 2.0 9.0 0.00 0.00 0.00 96 1016.2
20240226145537 63 159 3.0 9.0 0.00 0.00 0.00 96 1016.2
20240226145036 63 181 2.0 8.0 0.00 0.00 0.00 96 1016.3
20240226144543 63 145 1.0 9.0 0.00 0.00 0.00 96 1016.1
20240226144035 63 150 3.0 9.0 0.00 0.00 0.00 96 1016.0
20240226143538 63 138 2.0 8.0 0.00 0.00 0.00 96 1016.1
20240226143044 62 153 4.0 10.0 0.00 0.00 0.00 96 1015.9
20240226142535 62 0 2.0 11.0 0.00 0.00 0.00 96 1015.9
20240226142038 62 174 4.0 11.0 0.00 0.00 0.00 96 1015.8
20240226141542 62 176 3.0 7.0 0.00 0.00 0.00 96 1015.8
20240226141036 62 0 2.0 6.0 0.00 0.00 0.00 96 1015.8
20240226140536 62 144 1.0 6.0 0.00 0.00 0.00 96 1015.8
20240226140038 61 148 2.0 6.0 0.00 0.00 0.00 96 1015.8
20240226135537 61 0 1.0 5.0 0.00 0.00 0.00 96 1015.7
20240226135036 61 132 2.0 6.0 0.00 0.00 0.00 96 1015.7
20240226134544 62 153 2.0 6.0 0.00 0.00 0.00 96 1015.6
20240226134035 61 0 1.0 4.0 0.00 0.00 0.00 96 1015.7
20240226133536 62 0 0.0 6.0 0.00 0.00 0.00 96 1015.6
20240226133055 61 145 1.0 6.0 0.00 0.00 0.00 96 1015.6
20240226132536 61 166 0.0 5.0 0.00 0.00 0.00 96 1015.5
20240226132036 61 0 1.0 5.0 0.00 0.00 0.00 95 1015.6
20240226131546 61 0 0.0 3.0 0.00 0.00 0.00 95 1015.4
20240226131036 61 0 0.0 3.0 0.00 0.00 0.00 95 1015.4
20240226130536 61 0 0.0 3.0 0.00 0.00 0.00 95 1015.3
20240226130044 61 0 0.0 5.0 0.00 0.00 0.00 95 1015.4
20240226125536 61 158 0.0 5.0 0.00 0.00 0.00 95 1015.4
20240226125039 61 144 0.0 3.0 0.00 0.00 0.00 96 1015.5
20240226124553 61 0 0.0 1.0 0.00 0.00 0.00 95 1015.3
20240226124036 61 0 0.0 1.0 0.00 0.00 0.00 96 1015.1
20240226123535 61 0 0.0 0.0 0.00 0.00 0.00 96 1015.3
20240226123045 61 0 0.0 0.0 0.00 0.00 0.00 96 1015.3
20240226122536 61 0 0.0 0.0 0.00 0.00 0.00 96 1015.2
20240226122039 61 0 0.0 0.0 0.00 0.00 0.00 96 1015.1
20240226121546 60 0 0.0 0.0 0.00 0.00 0.00 95 1015.3
20240226121035 60 0 0.0 0.0 0.00 0.00 0.00 95 1015.2
20240226120537 60 0 0.0 0.0 0.00 0.00 0.00 95 1015.1
20240226120043 60 0 0.0 0.0 0.00 0.00 0.00 95 1015.2
20240226115535 60 0 0.0 0.0 0.00 0.00 0.00 96 1015.1
20240226115036 60 0 0.0 0.0 0.00 0.00 0.00 95 1015.0
20240226114547 59 0 0.0 0.0 0.00 0.00 0.00 95 1015.0
20240226114036 59 0 0.0 0.0 0.00 0.00 0.00 95 1015.1
20240226113536 59 0 0.0 0.0 0.00 0.00 0.00 94 1015.0
20240226113044 59 0 0.0 0.0 0.00 0.00 0.00 94 1015.1
20240226112538 59 0 0.0 0.0 0.00 0.00 0.00 94 1015.0
20240226112037 59 0 0.0 0.0 0.00 0.00 0.00 94 1015.0
20240226111542 59 0 0.0 0.0 0.00 0.00 0.00 93 1014.7
20240226111036 59 0 0.0 0.0 0.00 0.00 0.00 94 1014.8
20240226110535 59 0 0.0 0.0 0.00 0.00 0.00 93 1014.7
20240226110041 60 0 0.0 0.0 0.00 0.00 0.00 95 1015.0
20240226105535 59 0 0.0 0.0 0.00 0.00 0.00 95 1014.9
20240226105037 59 0 0.0 0.0 0.00 0.00 0.00 94 1014.9
20240226104540 59 0 0.0 0.0 0.00 0.00 0.00 93 1014.8
20240226104038 59 0 0.0 0.0 0.00 0.00 0.00 92 1014.8
20240226103539 59 0 0.0 0.0 0.00 0.00 0.00 93 1014.9
20240226103044 60 0 0.0 0.0 0.00 0.00 0.00 94 1014.9
20240226102535 60 0 0.0 0.0 0.00 0.00 0.00 93 1014.9
20240226102036 59 0 0.0 0.0 0.00 0.00 0.00 93 1014.9
20240226101545 60 0 0.0 0.0 0.00 0.00 0.00 94 1014.9
20240226101036 60 0 0.0 0.0 0.00 0.00 0.00 93 1014.9
20240226100538 60 0 0.0 0.0 0.00 0.00 0.00 93 1014.7
20240226100046 59 0 0.0 0.0 0.00 0.00 0.00 93 1014.9
20240226095536 60 0 0.0 0.0 0.00 0.00 0.00 92 1014.8
20240226095036 60 0 0.0 0.0 0.00 0.00 0.00 92 1014.9
20240226094542 60 0 0.0 0.0 0.00 0.00 0.00 92 1014.9
20240226094036 60 0 0.0 0.0 0.00 0.00 0.00 92 1014.9
20240226093536 61 0 0.0 0.0 0.00 0.00 0.00 93 1014.9
20240226093043 61 0 0.0 0.0 0.00 0.00 0.00 92 1015.0
20240226092537 61 0 0.0 0.0 0.00 0.00 0.00 93 1015.1
20240226092036 61 0 0.0 0.0 0.00 0.00 0.00 92 1015.1
20240226091544 61 0 0.0 0.0 0.00 0.00 0.00 92 1015.2
20240226091038 61 0 0.0 0.0 0.00 0.00 0.00 93 1015.1
20240226090537 61 0 0.0 0.0 0.00 0.00 0.00 93 1015.1
20240226090047 61 0 0.0 0.0 0.00 0.00 0.00 93 1015.3
20240226085539 61 0 0.0 0.0 0.00 0.00 0.00 92 1015.3
20240226085037 61 0 0.0 0.0 0.00 0.00 0.00 92 1015.4
20240226084551 61 0 0.0 0.0 0.00 0.00 0.00 92 1015.3
20240226084036 62 0 0.0 0.0 0.00 0.00 0.00 91 1015.3
20240226083537 62 0 0.0 0.0 0.00 0.00 0.00 91 1015.4
20240226083036 62 0 0.0 0.0 0.00 0.00 0.00 92 1015.4
20240226082539 62 0 0.0 0.0 0.00 0.00 0.00 92 1015.4
20240226082036 62 0 0.0 0.0 0.00 0.00 0.00 92 1015.3
20240226081540 62 0 0.0 0.0 0.00 0.00 0.00 91 1015.4
20240226081035 62 0 0.0 0.0 0.00 0.00 0.00 92 1015.4
20240226080538 62 0 0.0 0.0 0.00 0.00 0.00 92 1015.5
20240226080038 62 0 0.0 0.0 0.00 0.00 0.00 91 1015.4
20240226075536 63 0 0.0 0.0 0.00 0.00 0.00 91 1015.5
20240226075037 63 0 0.0 0.0 0.00 0.00 0.00 91 1015.6
20240226074537 63 0 0.0 0.0 0.00 0.00 0.00 91 1015.5
20240226074038 63 0 0.0 0.0 0.00 0.00 0.00 91 1015.6
20240226073535 63 0 0.0 1.0 0.00 0.00 0.00 91 1015.5
20240226073056 63 0 0.0 2.0 0.00 0.00 0.00 91 1015.4
20240226072535 63 0 0.0 3.0 0.00 0.00 0.00 91 1015.4
20240226072035 63 0 0.0 4.0 0.00 0.00 0.00 91 1015.4
20240226071545 63 0 1.0 4.0 0.00 0.00 0.00 91 1015.5
20240226071037 63 0 0.0 3.0 0.00 0.00 0.00 90 1015.5
20240226070537 63 0 0.0 3.0 0.00 0.00 0.00 90 1015.6
20240226070044 64 0 0.0 3.0 0.00 0.00 0.00 90 1015.7
20240226065537 64 0 0.0 3.0 0.00 0.00 0.00 90 1015.7
20240226065036 64 144 0.0 3.0 0.00 0.00 0.00 90 1015.8
20240226064546 64 144 0.0 3.0 0.00 0.00 0.00 89 1015.8
20240226064037 64 0 0.0 3.0 0.00 0.00 0.00 89 1015.8
20240226063536 64 0 0.0 3.0 0.00 0.00 0.00 89 1015.8
20240226063042 64 0 0.0 4.0 0.00 0.00 0.00 89 1015.8
20240226062536 64 0 1.0 4.0 0.00 0.00 0.00 89 1015.7
20240226062036 64 146 2.0 5.0 0.00 0.00 0.00 88 1015.8
20240226061542 64 157 2.0 5.0 0.00 0.00 0.00 88 1015.7
20240226061035 65 143 2.0 5.0 0.00 0.00 0.00 88 1015.8
20240226060535 65 142 2.0 6.0 0.00 0.00 0.00 88 1015.9
20240226060043 65 133 2.0 7.0 0.00 0.00 0.00 88 1015.9
20240226055536 65 157 2.0 7.0 0.00 0.00 0.00 87 1016.0
20240226055035 65 156 2.0 5.0 0.00 0.00 0.00 87 1015.9
20240226054546 65 0 2.0 5.0 0.00 0.00 0.00 87 1015.9
20240226054036 65 161 2.0 5.0 0.00 0.00 0.00 87 1015.8
20240226053537 66 136 2.0 6.0 0.00 0.00 0.00 86 1015.8
20240226053047 66 135 0.0 6.0 0.00 0.00 0.00 86 1015.9
20240226052536 66 112 0.0 4.0 0.00 0.00 0.00 86 1015.8
20240226052038 66 0 1.0 4.0 0.00 0.00 0.00 85 1015.9
20240226051543 66 142 2.0 6.0 0.00 0.00 0.00 85 1015.8
20240226051037 67 149 2.0 6.0 0.00 0.00 0.00 85 1015.7
20240226050536 67 0 1.0 6.0 0.00 0.00 0.00 84 1015.7
20240226050044 67 146 1.0 6.0 0.00 0.00 0.00 84 1015.8
20240226045535 67 138 1.0 7.0 0.00 0.00 0.00 84 1015.8
20240226045036 67 0 2.0 7.0 0.00 0.00 0.00 84 1015.7
20240226044548 67 131 2.0 7.0 0.00 0.00 0.00 84 1015.8
20240226044034 67 137 2.0 7.0 0.00 0.00 0.00 83 1015.7
20240226043533 68 154 2.0 7.0 0.00 0.00 0.00 83 1015.7
20240226043042 68 144 1.0 7.0 0.00 0.00 0.00 82 1015.6
20240226042535 68 138 1.0 7.0 0.00 0.00 0.00 82 1015.6
20240226042037 68 138 2.0 9.0 0.00 0.00 0.00 82 1015.6
20240226041542 68 145 3.0 9.0 0.00 0.00 0.00 81 1015.5
20240226041034 68 140 4.0 9.0 0.00 0.00 0.00 81 1015.5
20240226040535 69 142 3.0 8.0 0.00 0.00 0.00 80 1015.5
20240226040042 69 144 3.0 11.0 0.00 0.00 0.00 80 1015.4
20240226035538 69 154 4.0 11.0 0.00 0.00 0.00 80 1015.4
20240226035034 69 160 3.0 9.0 0.00 0.00 0.00 79 1015.4
20240226034548 70 146 2.0 9.0 0.00 0.00 0.00 79 1015.3
20240226034034 70 161 3.0 9.0 0.00 0.00 0.00 79 1015.4
20240226033538 70 144 4.0 9.0 0.00 0.00 0.00 78 1015.4
20240226033039 70 161 3.0 9.0 0.00 0.00 0.00 77 1015.3
20240226032534 71 126 3.0 9.0 0.00 0.00 0.00 77 1015.3
20240226032033 71 165 3.0 9.0 0.00 0.00 0.00 77 1015.2
20240226031538 71 154 3.0 9.0 0.00 0.00 0.00 76 1015.2
20240226031034 71 124 3.0 9.0 0.00 0.00 0.00 76 1015.2
20240226030537 72 155 2.0 8.0 0.00 0.00 0.00 75 1015.0
20240226030042 72 144 0.0 7.0 0.00 0.00 0.00 74 1015.0
20240226025535 72 162 2.0 12.0 0.00 0.00 0.00 74 1015.0
20240226025034 73 148 4.0 12.0 0.00 0.00 0.00 73 1015.0
20240226024549 73 151 4.0 12.0 0.00 0.00 0.00 72 1014.9
20240226024034 73 146 6.0 12.0 0.00 0.00 0.00 72 1014.9